LO6282 EPWA-LGZA

Flight info

Callsign LO6282
Flight time 2h 13m
Altitude 38000
Route EVINA DCT KUKAM DCT BABKO/N0448F370 DCT LITKU DCT PARAK DCT REDVA UL616 KOGAT DCT BITLA UN731 YNN UT352 ASTUS
Aircraft B38M/M-SDE1FGHILORVWXY/HB1

Departure

Time 2026-04-26 19:25
Airport Warsaw Chopin Airport (EPWA)

Arrival

Time 2026-04-26 21:38
Airport Zakynthos International Airport Dionysios Solomos (LGZA)
Time Latitude Longitude Altitude Speed Heading
2026-04-26 18:57 52.17481 20.96960 336 ft 0 kts 242°
2026-04-26 19:14 52.17487 20.96977 334 ft 2 kts 242°
2026-04-26 19:14 52.17494 20.97000 334 ft 2 kts 246°
2026-04-26 19:14 52.17499 20.97025 337 ft 2 kts 264°
2026-04-26 19:14 52.17498 20.97042 337 ft 2 kts 285°
2026-04-26 19:15 52.17485 20.97067 337 ft 1 kts 332°
2026-04-26 19:15 52.17484 20.97067 337 ft 0 kts 332°
2026-04-26 19:20 52.17485 20.97067 336 ft 1 kts 332°
2026-04-26 19:20 52.17494 20.97059 335 ft 4 kts 332°
2026-04-26 19:20 52.17553 20.97008 339 ft 10 kts 332°
2026-04-26 19:20 52.17626 20.96943 336 ft 10 kts 320°
2026-04-26 19:21 52.17621 20.96878 337 ft 8 kts 240°
2026-04-26 19:21 52.17583 20.96778 335 ft 13 kts 239°
2026-04-26 19:21 52.17529 20.96635 338 ft 16 kts 240°
2026-04-26 19:21 52.17434 20.96597 336 ft 18 kts 150°
2026-04-26 19:22 52.17309 20.96709 336 ft 23 kts 151°
2026-04-26 19:22 52.17159 20.96840 339 ft 27 kts 152°
2026-04-26 19:22 52.16996 20.96981 337 ft 24 kts 152°
2026-04-26 19:22 52.16863 20.97096 338 ft 19 kts 153°
2026-04-26 19:23 52.16757 20.97189 336 ft 17 kts 152°
2026-04-26 19:23 52.16638 20.97291 339 ft 21 kts 151°
2026-04-26 19:23 52.16544 20.97477 337 ft 23 kts 114°
2026-04-26 19:23 52.16476 20.97729 338 ft 26 kts 115°
2026-04-26 19:24 52.16332 20.97738 334 ft 25 kts 220°
2026-04-26 19:24 52.16356 20.97485 337 ft 36 kts 294°
2026-04-26 19:24 52.16876 20.95632 345 ft 139 kts 297°
2026-04-26 19:25 52.17292 20.94084 521 ft 154 kts 294°
2026-04-26 19:25 52.17553 20.92984 737 ft 160 kts 292°
2026-04-26 19:25 52.18022 20.90655 1076 ft 173 kts 290°
2026-04-26 19:25 52.18397 20.88744 1277 ft 182 kts 292°
2026-04-26 19:26 52.18794 20.86765 1548 ft 185 kts 292°
2026-04-26 19:26 52.18697 20.84638 1767 ft 203 kts 247°
2026-04-26 19:26 52.17839 20.82728 1919 ft 216 kts 239°
2026-04-26 19:26 52.17028 20.80622 2096 ft 223 kts 251°
2026-04-26 19:27 52.16554 20.78192 2265 ft 228 kts 264°
2026-04-26 19:27 52.16278 20.75631 2519 ft 240 kts 266°
2026-04-26 19:27 52.15945 20.72869 3189 ft 250 kts 258°
2026-04-26 19:27 52.15090 20.70385 3969 ft 263 kts 231°
2026-04-26 19:28 52.13686 20.68420 4783 ft 268 kts 221°
2026-04-26 19:28 52.12007 20.67040 5558 ft 276 kts 199°
2026-04-26 19:28 52.10143 20.66345 6281 ft 281 kts 195°
2026-04-26 19:28 52.08198 20.65601 6999 ft 284 kts 199°
2026-04-26 19:29 52.06323 20.64651 7670 ft 287 kts 202°
2026-04-26 19:29 52.04416 20.63608 8348 ft 291 kts 202°
2026-04-26 19:29 52.02465 20.62606 9026 ft 296 kts 201°
2026-04-26 19:29 52.00477 20.61622 9698 ft 301 kts 201°
2026-04-26 19:30 51.98462 20.60613 10345 ft 305 kts 202°
2026-04-26 19:30 51.96406 20.59566 10802 ft 316 kts 202°
2026-04-26 19:30 51.94288 20.58487 11140 ft 330 kts 202°
2026-04-26 19:30 51.92778 20.57726 11358 ft 341 kts 202°
2026-04-26 19:31 51.89702 20.56185 11914 ft 355 kts 202°
2026-04-26 19:31 51.87315 20.54987 12459 ft 362 kts 203°
2026-04-26 19:31 51.84887 20.53766 13037 ft 368 kts 203°
2026-04-26 19:31 51.82420 20.52526 13630 ft 374 kts 204°
2026-04-26 19:32 51.79910 20.51269 14207 ft 380 kts 204°
2026-04-26 19:32 51.77363 20.49995 14737 ft 385 kts 204°
2026-04-26 19:32 51.74820 20.48723 15269 ft 389 kts 204°
2026-04-26 19:32 51.72215 20.47422 15806 ft 394 kts 204°
2026-04-26 19:33 51.69571 20.46103 16344 ft 398 kts 204°
2026-04-26 19:33 51.66902 20.44773 16882 ft 402 kts 205°
2026-04-26 19:33 51.64215 20.43436 17419 ft 407 kts 205°
2026-04-26 19:33 51.61529 20.42101 17945 ft 411 kts 205°
2026-04-26 19:34 51.58772 20.40733 18484 ft 415 kts 205°
2026-04-26 19:34 51.56000 20.39359 18958 ft 418 kts 205°
2026-04-26 19:34 51.53199 20.37973 19436 ft 421 kts 205°
2026-04-26 19:34 51.50383 20.36581 19927 ft 424 kts 205°
2026-04-26 19:35 51.47583 20.35199 20416 ft 426 kts 205°
2026-04-26 19:35 51.44742 20.33797 20892 ft 428 kts 205°
2026-04-26 19:35 51.41889 20.32393 21393 ft 429 kts 205°
2026-04-26 19:35 51.39026 20.30984 21888 ft 431 kts 205°
2026-04-26 19:36 51.36149 20.29570 22369 ft 433 kts 205°
2026-04-26 19:36 51.34238 20.28632 22687 ft 434 kts 205°
2026-04-26 19:36 51.30364 20.26734 23326 ft 437 kts 205°
2026-04-26 19:36 51.27454 20.25310 23797 ft 438 kts 205°
2026-04-26 19:37 51.24527 20.23880 24191 ft 440 kts 205°
2026-04-26 19:37 51.21589 20.22446 24545 ft 442 kts 205°
2026-04-26 19:37 51.18646 20.21013 24929 ft 443 kts 205°
2026-04-26 19:37 51.15688 20.19573 25303 ft 445 kts 205°
2026-04-26 19:38 51.12789 20.18163 25658 ft 447 kts 205°
2026-04-26 19:38 51.09808 20.16716 26023 ft 448 kts 205°
2026-04-26 19:38 51.06851 20.15283 26372 ft 450 kts 205°
2026-04-26 19:38 51.03846 20.13828 26718 ft 452 kts 205°
2026-04-26 19:39 51.00820 20.12365 27023 ft 454 kts 204°
2026-04-26 19:39 50.97788 20.10902 27382 ft 455 kts 205°
2026-04-26 19:39 50.94745 20.09435 27724 ft 457 kts 205°
2026-04-26 19:39 50.91693 20.07965 28065 ft 459 kts 205°
2026-04-26 19:40 50.88668 20.06511 28390 ft 460 kts 205°
2026-04-26 19:40 50.85593 20.05034 28720 ft 462 kts 205°
2026-04-26 19:40 50.82506 20.03554 29039 ft 464 kts 204°
2026-04-26 19:40 50.79407 20.02070 29352 ft 466 kts 204°
2026-04-26 19:41 50.76297 20.00583 29635 ft 467 kts 204°
2026-04-26 19:41 50.73175 19.99093 29952 ft 469 kts 204°
2026-04-26 19:41 50.70039 19.97597 30262 ft 471 kts 204°
2026-04-26 19:41 50.69019 19.97111 30351 ft 471 kts 204°
2026-04-26 19:42 50.63790 19.94624 30771 ft 474 kts 204°
2026-04-26 19:42 50.60624 19.93121 31023 ft 476 kts 204°
2026-04-26 19:42 50.57450 19.91615 31283 ft 477 kts 204°
2026-04-26 19:42 50.54256 19.90104 31498 ft 479 kts 204°
2026-04-26 19:43 50.51060 19.88593 31740 ft 480 kts 204°
2026-04-26 19:43 50.47850 19.87077 31992 ft 482 kts 204°
2026-04-26 19:43 50.44628 19.85557 32227 ft 483 kts 204°
2026-04-26 19:43 50.41440 19.84056 32455 ft 485 kts 204°
2026-04-26 19:44 50.38204 19.82535 32683 ft 486 kts 204°
2026-04-26 19:44 50.34962 19.81015 33039 ft 485 kts 204°
2026-04-26 19:44 50.31723 19.79498 33370 ft 483 kts 204°
2026-04-26 19:44 50.28501 19.77989 33720 ft 482 kts 204°
2026-04-26 19:45 50.25289 19.76486 34053 ft 481 kts 204°
2026-04-26 19:45 50.22115 19.75004 34358 ft 480 kts 204°
2026-04-26 19:45 50.18911 19.73511 34642 ft 479 kts 204°
2026-04-26 19:45 50.15717 19.72025 34918 ft 479 kts 204°
2026-04-26 19:46 50.12520 19.70538 35186 ft 478 kts 204°
2026-04-26 19:46 50.09508 19.69139 35412 ft 478 kts 203°
2026-04-26 19:46 50.06268 19.67638 35686 ft 477 kts 203°
2026-04-26 19:46 50.03088 19.66166 35951 ft 476 kts 203°
2026-04-26 19:47 49.99908 19.64695 36216 ft 476 kts 202°
2026-04-26 19:47 49.98878 19.64219 36304 ft 476 kts 202°
2026-04-26 19:47 49.93563 19.61767 36751 ft 475 kts 202°
2026-04-26 19:47 49.90436 19.60328 37005 ft 474 kts 202°
2026-04-26 19:48 49.87264 19.58869 37208 ft 474 kts 202°
2026-04-26 19:48 49.84100 19.57416 37438 ft 474 kts 202°
2026-04-26 19:48 49.80939 19.55967 37587 ft 473 kts 202°
2026-04-26 19:48 49.77793 19.54529 37562 ft 469 kts 202°
2026-04-26 19:49 49.71541 19.51668 37738 ft 468 kts 202°
2026-04-26 19:49 49.68406 19.50237 37908 ft 469 kts 202°
2026-04-26 19:49 49.65310 19.48829 38093 ft 469 kts 202°
2026-04-26 19:50 49.62122 19.47660 38278 ft 475 kts 193°
2026-04-26 19:50 49.58817 19.47244 38281 ft 473 kts 184°
2026-04-26 19:50 49.52303 19.47801 38267 ft 467 kts 181°
2026-04-26 19:51 49.46876 19.48311 38272 ft 469 kts 181°
2026-04-26 19:51 49.40388 19.48934 38268 ft 469 kts 181°
2026-04-26 19:52 49.33870 19.49553 38286 ft 468 kts 181°
2026-04-26 19:52 49.27360 19.50171 38281 ft 468 kts 181°
2026-04-26 19:53 49.20863 19.50786 38259 ft 467 kts 181°
2026-04-26 19:53 49.14401 19.51396 38277 ft 467 kts 182°
2026-04-26 19:54 49.07885 19.52009 38272 ft 468 kts 182°
2026-04-26 19:54 49.01366 19.52622 38271 ft 468 kts 182°
2026-04-26 19:55 48.94895 19.53227 38266 ft 469 kts 182°
2026-04-26 19:55 48.88388 19.53836 38266 ft 468 kts 182°
2026-04-26 19:56 48.81877 19.54442 38260 ft 468 kts 182°
2026-04-26 19:56 48.75365 19.55048 38257 ft 469 kts 182°
2026-04-26 19:57 48.68820 19.55652 38257 ft 471 kts 182°
2026-04-26 19:57 48.62274 19.56260 38251 ft 471 kts 182°
2026-04-26 19:58 48.55774 19.56858 38255 ft 471 kts 182°
2026-04-26 19:58 48.49226 19.57462 38254 ft 469 kts 182°
2026-04-26 19:59 48.42743 19.58056 38238 ft 466 kts 182°
2026-04-26 19:59 48.36310 19.58643 38232 ft 466 kts 182°
2026-04-26 20:00 48.29836 19.59236 37957 ft 466 kts 182°
2026-04-26 20:00 48.26591 19.59529 37534 ft 468 kts 182°
2026-04-26 20:00 48.23337 19.59847 37238 ft 467 kts 178°
2026-04-26 20:01 48.16912 19.61385 37240 ft 471 kts 175°
2026-04-26 20:01 48.10481 19.62980 37240 ft 471 kts 175°
2026-04-26 20:02 48.04005 19.64588 37210 ft 471 kts 175°
2026-04-26 20:02 47.98659 19.65913 37231 ft 467 kts 175°
2026-04-26 20:03 47.91152 19.67762 37228 ft 467 kts 175°
2026-04-26 20:03 47.84766 19.69335 37230 ft 468 kts 175°
2026-04-26 20:04 47.78334 19.70915 37222 ft 464 kts 175°
2026-04-26 20:04 47.72052 19.72452 37223 ft 464 kts 175°
2026-04-26 20:05 47.65706 19.74002 37224 ft 463 kts 175°
2026-04-26 20:05 47.59338 19.75555 37220 ft 463 kts 175°
2026-04-26 20:06 47.53027 19.77091 37211 ft 456 kts 175°
2026-04-26 20:06 47.46717 19.78616 37222 ft 459 kts 175°
2026-04-26 20:07 47.40441 19.80138 37219 ft 459 kts 175°
2026-04-26 20:07 47.34142 19.81656 37200 ft 458 kts 175°
2026-04-26 20:08 47.27809 19.83181 37230 ft 461 kts 175°
2026-04-26 20:08 47.21504 19.84696 37214 ft 461 kts 175°
2026-04-26 20:09 47.15237 19.86197 37215 ft 461 kts 175°
2026-04-26 20:09 47.08904 19.87711 37230 ft 461 kts 175°
2026-04-26 20:10 47.02610 19.89212 37225 ft 461 kts 175°
2026-04-26 20:10 46.96270 19.90720 37238 ft 461 kts 175°
2026-04-26 20:11 46.89923 19.92226 37243 ft 461 kts 175°
2026-04-26 20:12 46.80483 19.94460 37229 ft 458 kts 175°
2026-04-26 20:12 46.74169 19.95948 37225 ft 460 kts 175°
2026-04-26 20:13 46.67842 19.97438 37221 ft 460 kts 176°
2026-04-26 20:13 46.61528 19.98920 37213 ft 459 kts 175°
2026-04-26 20:14 46.55255 20.00389 37212 ft 459 kts 175°
2026-04-26 20:14 46.48939 20.01865 37217 ft 460 kts 175°
2026-04-26 20:15 46.42593 20.03344 37389 ft 462 kts 175°
2026-04-26 20:15 46.39411 20.04085 37568 ft 463 kts 175°
2026-04-26 20:15 46.36264 20.04816 37743 ft 464 kts 175°
2026-04-26 20:15 46.33070 20.05558 37897 ft 465 kts 175°
2026-04-26 20:16 46.29869 20.06300 38063 ft 465 kts 175°
2026-04-26 20:16 46.26669 20.07041 38205 ft 466 kts 175°
2026-04-26 20:16 46.23484 20.07780 38189 ft 459 kts 175°
2026-04-26 20:17 46.17228 20.09223 38197 ft 455 kts 175°
2026-04-26 20:17 46.10941 20.10308 38199 ft 454 kts 178°
2026-04-26 20:18 46.04685 20.11344 38208 ft 454 kts 178°
2026-04-26 20:18 45.98400 20.12371 38215 ft 453 kts 178°
2026-04-26 20:19 45.92161 20.13392 38218 ft 454 kts 178°
2026-04-26 20:19 45.85869 20.14418 38209 ft 455 kts 178°
2026-04-26 20:20 45.79564 20.15445 38211 ft 455 kts 178°
2026-04-26 20:20 45.73259 20.16469 38200 ft 455 kts 178°
2026-04-26 20:21 45.67000 20.17484 38204 ft 456 kts 178°
2026-04-26 20:21 45.60692 20.18504 38207 ft 455 kts 178°
2026-04-26 20:22 45.54389 20.19521 38203 ft 455 kts 177°
2026-04-26 20:22 45.48079 20.20536 38208 ft 456 kts 177°
2026-04-26 20:23 45.41756 20.21552 38215 ft 457 kts 178°
2026-04-26 20:23 45.35472 20.22559 38186 ft 456 kts 177°
2026-04-26 20:24 45.29154 20.23569 38199 ft 456 kts 177°
2026-04-26 20:24 45.22882 20.24570 38197 ft 456 kts 177°
2026-04-26 20:25 45.16568 20.25575 38198 ft 456 kts 177°
2026-04-26 20:25 45.10239 20.26580 38205 ft 456 kts 177°
2026-04-26 20:26 45.03926 20.27580 38204 ft 457 kts 177°
2026-04-26 20:26 44.97639 20.28575 38226 ft 458 kts 177°
2026-04-26 20:27 44.91299 20.29575 38218 ft 458 kts 177°
2026-04-26 20:27 44.84957 20.30574 38223 ft 457 kts 177°
2026-04-26 20:28 44.78638 20.31566 38217 ft 456 kts 177°
2026-04-26 20:28 44.72352 20.32551 38198 ft 457 kts 177°
2026-04-26 20:29 44.66034 20.33539 38206 ft 457 kts 177°
2026-04-26 20:29 44.59737 20.34521 38206 ft 458 kts 177°
2026-04-26 20:30 44.53395 20.35509 38206 ft 458 kts 177°
2026-04-26 20:30 44.47053 20.36494 38213 ft 458 kts 177°
2026-04-26 20:31 44.40710 20.37478 38213 ft 458 kts 177°
2026-04-26 20:31 44.34418 20.38451 38215 ft 457 kts 177°
2026-04-26 20:32 44.28086 20.39428 38202 ft 457 kts 177°
2026-04-26 20:32 44.21760 20.40403 38203 ft 456 kts 177°
2026-04-26 20:33 44.15446 20.41373 38204 ft 456 kts 177°
2026-04-26 20:33 44.09173 20.42335 38211 ft 456 kts 177°
2026-04-26 20:34 44.02850 20.43303 38210 ft 456 kts 177°
2026-04-26 20:34 43.96537 20.44267 38212 ft 456 kts 177°
2026-04-26 20:35 43.90254 20.45224 38196 ft 456 kts 176°
2026-04-26 20:35 43.83948 20.46183 38212 ft 456 kts 176°
2026-04-26 20:36 43.77623 20.47142 38222 ft 456 kts 176°
2026-04-26 20:36 43.71304 20.48099 38219 ft 457 kts 176°
2026-04-26 20:37 43.64980 20.49055 38217 ft 457 kts 176°
2026-04-26 20:37 43.59719 20.49848 38220 ft 457 kts 176°
2026-04-26 20:38 43.53396 20.50800 38218 ft 457 kts 176°
2026-04-26 20:38 43.47108 20.51744 38207 ft 457 kts 176°
2026-04-26 20:39 43.40769 20.52694 38207 ft 457 kts 176°
2026-04-26 20:39 43.34442 20.53640 38208 ft 457 kts 176°
2026-04-26 20:40 43.28113 20.54585 38216 ft 457 kts 176°
2026-04-26 20:40 43.21829 20.55521 38212 ft 456 kts 176°
2026-04-26 20:41 43.15510 20.56460 38207 ft 456 kts 176°
2026-04-26 20:41 43.09192 20.57397 38208 ft 456 kts 176°
2026-04-26 20:42 43.02905 20.58344 38216 ft 458 kts 173°
2026-04-26 20:42 42.99805 20.59387 38235 ft 461 kts 161°
2026-04-26 20:42 42.96804 20.60950 38221 ft 462 kts 161°
2026-04-26 20:43 42.90813 20.64142 38218 ft 462 kts 161°
2026-04-26 20:43 42.84806 20.67294 38214 ft 462 kts 161°
2026-04-26 20:44 42.78836 20.70443 38213 ft 463 kts 161°
2026-04-26 20:44 42.72819 20.73599 38206 ft 462 kts 161°
2026-04-26 20:45 42.66810 20.76750 38187 ft 462 kts 161°
2026-04-26 20:45 42.60813 20.79885 38183 ft 461 kts 161°
2026-04-26 20:46 42.54860 20.82991 38182 ft 461 kts 161°
2026-04-26 20:46 42.48856 20.86117 38182 ft 461 kts 161°
2026-04-26 20:47 42.42856 20.89235 38186 ft 461 kts 161°
2026-04-26 20:47 42.36957 20.92294 38188 ft 461 kts 161°
2026-04-26 20:48 42.30948 20.95405 38187 ft 461 kts 161°
2026-04-26 20:48 42.24952 20.98502 38183 ft 461 kts 161°
2026-04-26 20:49 42.18948 21.01596 38187 ft 463 kts 161°
2026-04-26 20:49 42.12968 21.04672 38188 ft 461 kts 161°
2026-04-26 20:49 42.09905 21.05897 38201 ft 459 kts 172°
2026-04-26 20:50 42.06757 21.06689 38188 ft 460 kts 172°
2026-04-26 20:50 42.00462 21.08232 38174 ft 459 kts 172°
2026-04-26 20:51 41.94204 21.09799 38171 ft 460 kts 172°
2026-04-26 20:51 41.87903 21.11353 38167 ft 459 kts 172°
2026-04-26 20:52 41.81613 21.12912 38154 ft 459 kts 172°
2026-04-26 20:52 41.75324 21.14464 38143 ft 458 kts 173°
2026-04-26 20:53 41.69058 21.16005 38151 ft 460 kts 173°
2026-04-26 20:53 41.62752 21.17557 38138 ft 460 kts 173°
2026-04-26 20:54 41.56456 21.19100 38145 ft 459 kts 173°
2026-04-26 20:54 41.50202 21.20632 38139 ft 459 kts 173°
2026-04-26 20:55 41.43906 21.22169 38142 ft 460 kts 173°
2026-04-26 20:55 41.37604 21.23707 38143 ft 460 kts 172°
2026-04-26 20:56 41.31303 21.25240 38144 ft 460 kts 173°
2026-04-26 20:56 41.25025 21.26765 38145 ft 460 kts 173°
2026-04-26 20:57 41.18729 21.28291 38132 ft 460 kts 172°
2026-04-26 20:57 41.12481 21.29803 38140 ft 459 kts 172°
2026-04-26 20:58 41.06191 21.31322 38140 ft 458 kts 173°
2026-04-26 20:58 40.99912 21.32835 38142 ft 459 kts 172°
2026-04-26 20:59 40.93640 21.34344 38145 ft 457 kts 172°
2026-04-26 20:59 40.87389 21.35503 38170 ft 453 kts 184°
2026-04-26 21:00 40.81150 21.34555 38156 ft 450 kts 191°
2026-04-26 21:00 40.74944 21.33334 38161 ft 451 kts 191°
2026-04-26 21:01 40.68788 21.32137 38155 ft 449 kts 191°
2026-04-26 21:01 40.62585 21.30925 38153 ft 450 kts 191°
2026-04-26 21:02 40.56387 21.29722 38143 ft 450 kts 191°
2026-04-26 21:02 40.50188 21.28518 38142 ft 450 kts 191°
2026-04-26 21:03 40.44132 21.26859 38163 ft 445 kts 204°
2026-04-26 21:03 40.38512 21.23503 38143 ft 443 kts 207°
2026-04-26 21:04 40.32912 21.20087 38153 ft 443 kts 207°
2026-04-26 21:04 40.27338 21.16694 38146 ft 444 kts 207°
2026-04-26 21:05 40.21728 21.13282 38138 ft 444 kts 207°
2026-04-26 21:05 40.16121 21.09881 38139 ft 444 kts 207°
2026-04-26 21:06 40.10509 21.06481 38132 ft 444 kts 207°
2026-04-26 21:06 40.04900 21.03091 38130 ft 443 kts 207°
2026-04-26 21:07 39.99342 20.99738 38121 ft 441 kts 207°
2026-04-26 21:07 39.93754 20.96371 38126 ft 441 kts 207°
2026-04-26 21:08 39.88177 20.93018 38126 ft 441 kts 207°
2026-04-26 21:08 39.82586 20.89662 38130 ft 441 kts 207°
2026-04-26 21:09 39.77036 20.86337 38128 ft 441 kts 207°
2026-04-26 21:09 39.71457 20.83001 38130 ft 441 kts 207°
2026-04-26 21:10 39.65808 20.79861 38125 ft 442 kts 205°
2026-04-26 21:10 39.60189 20.76771 38128 ft 444 kts 205°
2026-04-26 21:11 39.54484 20.73684 38124 ft 443 kts 205°
2026-04-26 21:11 39.48788 20.70583 38119 ft 443 kts 205°
2026-04-26 21:12 39.43094 20.67501 38112 ft 443 kts 205°
2026-04-26 21:12 39.37432 20.64436 38106 ft 443 kts 205°
2026-04-26 21:13 39.31731 20.61358 38105 ft 443 kts 205°
2026-04-26 21:13 39.26075 20.58309 37977 ft 443 kts 205°
2026-04-26 21:13 39.23218 20.56770 37456 ft 444 kts 205°
2026-04-26 21:14 39.20364 20.55235 36938 ft 442 kts 205°
2026-04-26 21:14 39.17528 20.53712 36398 ft 441 kts 205°
2026-04-26 21:14 39.14702 20.52194 35868 ft 439 kts 205°
2026-04-26 21:14 39.11882 20.50681 35314 ft 439 kts 205°
2026-04-26 21:15 39.09055 20.49165 34752 ft 440 kts 205°
2026-04-26 21:15 39.06251 20.47663 34184 ft 442 kts 205°
2026-04-26 21:15 39.03410 20.46145 33561 ft 441 kts 204°
2026-04-26 21:15 39.00559 20.44627 32970 ft 445 kts 204°
2026-04-26 21:16 38.97685 20.43099 32349 ft 447 kts 204°
2026-04-26 21:16 38.94817 20.41574 31720 ft 445 kts 204°
2026-04-26 21:16 38.91959 20.40054 31100 ft 443 kts 204°
2026-04-26 21:16 38.89111 20.38542 30477 ft 441 kts 204°
2026-04-26 21:17 38.86277 20.37039 29814 ft 439 kts 204°
2026-04-26 21:17 38.83465 20.35549 29201 ft 435 kts 204°
2026-04-26 21:17 38.80678 20.34073 28591 ft 431 kts 204°
2026-04-26 21:17 38.77912 20.32609 27988 ft 428 kts 204°
2026-04-26 21:18 38.75204 20.31177 27400 ft 424 kts 204°
2026-04-26 21:18 38.72485 20.29741 26807 ft 421 kts 204°
2026-04-26 21:18 38.69783 20.28315 26219 ft 418 kts 204°
2026-04-26 21:18 38.67093 20.26896 25627 ft 416 kts 204°
2026-04-26 21:19 38.64428 20.25491 25054 ft 413 kts 204°
2026-04-26 21:19 38.61775 20.24095 24476 ft 411 kts 204°
2026-04-26 21:19 38.59132 20.22704 23898 ft 409 kts 204°
2026-04-26 21:19 38.56503 20.21322 23290 ft 407 kts 204°
2026-04-26 21:20 38.53890 20.19950 22689 ft 403 kts 204°
2026-04-26 21:20 38.51301 20.18590 22062 ft 401 kts 204°
2026-04-26 21:20 38.48761 20.17259 21509 ft 397 kts 204°
2026-04-26 21:20 38.46194 20.15969 20952 ft 395 kts 199°
2026-04-26 21:21 38.43504 20.15301 20410 ft 394 kts 185°
2026-04-26 21:21 38.40769 20.15490 19857 ft 394 kts 170°
2026-04-26 21:21 38.38155 20.16518 19316 ft 394 kts 156°
2026-04-26 21:21 38.35808 20.18317 18762 ft 393 kts 144°
2026-04-26 21:22 38.33628 20.20416 18178 ft 392 kts 143°
2026-04-26 21:22 38.31480 20.22526 17619 ft 388 kts 143°
2026-04-26 21:22 38.29330 20.24624 16977 ft 384 kts 143°
2026-04-26 21:23 38.25221 20.28587 15940 ft 364 kts 143°
2026-04-26 21:23 38.23208 20.30537 15438 ft 363 kts 143°
2026-04-26 21:23 38.21200 20.32482 14934 ft 361 kts 143°
2026-04-26 21:23 38.19199 20.34415 14435 ft 360 kts 143°
2026-04-26 21:24 38.17206 20.36338 13930 ft 359 kts 143°
2026-04-26 21:24 38.15890 20.37608 13578 ft 358 kts 143°
2026-04-26 21:24 38.13913 20.39515 13079 ft 355 kts 143°
2026-04-26 21:24 38.11318 20.42016 12428 ft 351 kts 143°
2026-04-26 21:25 38.09371 20.43890 11945 ft 349 kts 143°
2026-04-26 21:25 38.07442 20.45746 11465 ft 347 kts 143°
2026-04-26 21:25 38.06172 20.46968 11149 ft 345 kts 143°
2026-04-26 21:25 38.04268 20.48798 10806 ft 339 kts 143°
2026-04-26 21:26 38.02417 20.50576 10665 ft 327 kts 142°
2026-04-26 21:26 38.00625 20.52295 10522 ft 320 kts 142°
2026-04-26 21:26 37.98840 20.54008 10406 ft 325 kts 142°
2026-04-26 21:26 37.96991 20.55781 10100 ft 340 kts 142°
2026-04-26 21:27 37.95085 20.57607 9695 ft 341 kts 143°
2026-04-26 21:27 37.93239 20.59374 9301 ft 327 kts 142°
2026-04-26 21:27 37.91502 20.61034 8944 ft 299 kts 142°
2026-04-26 21:27 37.89897 20.62568 8641 ft 282 kts 142°
2026-04-26 21:28 37.88386 20.64014 8411 ft 257 kts 142°
2026-04-26 21:28 37.87029 20.65309 8127 ft 233 kts 142°
2026-04-26 21:28 37.85793 20.66490 7863 ft 213 kts 142°
2026-04-26 21:28 37.84654 20.67577 7617 ft 197 kts 142°
2026-04-26 21:29 37.83591 20.68591 7278 ft 190 kts 142°
2026-04-26 21:29 37.82539 20.69596 6818 ft 192 kts 141°
2026-04-26 21:29 37.81474 20.70611 6394 ft 190 kts 142°
2026-04-26 21:29 37.80423 20.71612 5946 ft 188 kts 141°
2026-04-26 21:30 37.79381 20.72605 5524 ft 186 kts 141°
2026-04-26 21:30 37.78349 20.73589 5113 ft 184 kts 142°
2026-04-26 21:30 37.77352 20.74537 5034 ft 181 kts 142°
2026-04-26 21:30 37.76309 20.75530 5038 ft 192 kts 142°
2026-04-26 21:31 37.75225 20.76562 5038 ft 198 kts 142°
2026-04-26 21:31 37.74130 20.77603 5036 ft 198 kts 142°
2026-04-26 21:31 37.73035 20.78644 4962 ft 196 kts 142°
2026-04-26 21:31 37.71941 20.79683 4693 ft 197 kts 142°
2026-04-26 21:32 37.70842 20.80726 4442 ft 197 kts 142°
2026-04-26 21:32 37.69758 20.81755 4216 ft 191 kts 142°
2026-04-26 21:32 37.68718 20.82743 4002 ft 184 kts 142°
2026-04-26 21:32 37.67722 20.83688 3806 ft 179 kts 142°
2026-04-26 21:33 37.66751 20.84609 3587 ft 171 kts 142°
2026-04-26 21:33 37.65812 20.85498 3366 ft 166 kts 142°
2026-04-26 21:33 37.64892 20.86370 3069 ft 164 kts 141°
2026-04-26 21:33 37.63981 20.87234 2726 ft 163 kts 140°
2026-04-26 21:34 37.63082 20.88086 2460 ft 160 kts 141°
2026-04-26 21:34 37.62191 20.88928 2172 ft 159 kts 140°
2026-04-26 21:34 37.61477 20.89932 1856 ft 152 kts 104°
2026-04-26 21:34 37.61437 20.91200 1909 ft 146 kts 71°
2026-04-26 21:35 37.62011 20.92224 2008 ft 145 kts 27°
2026-04-26 21:35 37.62962 20.92564 2059 ft 145 kts
2026-04-26 21:35 37.63947 20.92490 2045 ft 144 kts 348°
2026-04-26 21:35 37.64926 20.92173 1940 ft 146 kts 346°
2026-04-26 21:36 37.65906 20.91820 1741 ft 147 kts 345°
2026-04-26 21:36 37.66879 20.91462 1543 ft 147 kts 344°
2026-04-26 21:36 37.67843 20.91106 1363 ft 147 kts 345°
2026-04-26 21:36 37.68823 20.90745 1161 ft 145 kts 344°
2026-04-26 21:37 37.69802 20.90385 963 ft 145 kts 344°
2026-04-26 21:37 37.70781 20.90022 770 ft 146 kts 344°
2026-04-26 21:37 37.71741 20.89641 487 ft 146 kts 343°
2026-04-26 21:37 37.72712 20.89295 316 ft 144 kts 345°
2026-04-26 21:38 37.73689 20.88936 192 ft 146 kts 344°
2026-04-26 21:38 37.74659 20.88587 19 ft 135 kts 343°
2026-04-26 21:38 37.75363 20.88331 17 ft 78 kts 344°
2026-04-26 21:38 37.75702 20.88218 19 ft 23 kts 346°
2026-04-26 21:39 37.75830 20.88172 18 ft 16 kts 343°
2026-04-26 21:39 37.75869 20.88153 19 ft 1 kts 265°
2026-04-26 21:39 37.75864 20.88148 19 ft 2 kts 224°
2026-04-26 21:39 37.75806 20.88163 18 ft 17 kts 163°
2026-04-26 21:40 37.75676 20.88212 19 ft 21 kts 163°
2026-04-26 21:40 37.75526 20.88268 18 ft 24 kts 163°
2026-04-26 21:40 37.75356 20.88333 17 ft 27 kts 163°
2026-04-26 21:40 37.75252 20.88417 16 ft 16 kts 96°
2026-04-26 21:41 37.75290 20.88473 16 ft 5 kts 18°
2026-04-26 21:41 37.75324 20.88513 16 ft 8 kts 35°
2026-04-26 21:41 37.75383 20.88505 17 ft 10 kts 347°
2026-04-26 21:41 37.75406 20.88531 18 ft 2 kts 85°
2026-04-26 21:42 37.75407 20.88536 18 ft 0 kts 83°